User: anonymous   Login
Location: Mentone
(34.5413°N, 85.5351°W)
Time: 21:46:25
(UTC-05:00)
Language:

Uosat F - Orbit

View from above orbital plane
View from above orbital plane
View from above satellite
View from above satellite

Ground track
Ground track

The orbit data is extracted from the following two-line orbital elements,

1 21575U 91050B   16182.88770283  .00000024  00000-0  22143-4 0  9998
2 21575  98.7606 184.7782 0006144 265.1464  94.9022 14.40746391310692
Epoch (UTC): 30 June 2016 21:18:17
Eccentricity: 0.0006144
inclination: 98.7606°
perigee height: 751 km
apogee height: 760 km
right ascension of ascending node: 184.7782°
argument of perigee: 265.1464°
revolutions per day: 14.40746391
mean anomaly at epoch: 94.9022°
orbit number at epoch: 31069

The dashed part of the orbit path shows where the satellite is in the earth's shadow,  

DLR